Weather History for Whitefield, NH

Change the Weather History Date:

Sunday, February 10, 2013

  Actual Average Record
Temperature  
Mean Temperature 2 °F -  
Max Temperature 27 °F 26 °F 48 °F (2001)
Min Temperature -22 °F 0 °F -22 °F (2013)
Degree Days  
Heating Degree Days 62    
Moisture  
Dew Point -9 °F    
Average Humidity 67    
Maximum Humidity 84    
Minimum Humidity 33    
Precipitation  
Precipitation 0.00 in - - ()
Sea Level Pressure  
Sea Level Pressure 30.41 in    
Wind  
Wind Speed 0 mph (North)    
Max Wind Speed 0 mph    
Max Gust Speed -    
Visibility 10 miles    
Events      
Averages and records for this station are not official NWS values.
T = Trace of Precipitation, MM = Missing Value Source: NWS Daily Summary

Daily Weather History Graph

Daily Weather History Graph

Search for Another Location

Airport:

Trip Planner

Search our weather history database for the weather conditions in past years. The results will help you decide how hot, cold, wet, or windy it might be!

Date:

Astronomy

Feb. 10, 2013 Rise Set
Actual Time 6:52 AM EST 5:08 PM EST
Civil Twilight 6:22 AM EST 5:38 PM EST
Nautical Twilight 5:48 AM EST 6:13 PM EST
Astronomical Twilight 5:14 AM EST 6:46 PM EST
Moon 6:37 AM EST (2/10) 5:59 PM EST (2/10)
Length of Visible Light 11h 16m
Length of Day
10h 15m
New Moon, 0% of the Moon is Illuminated
Feb 10
New Moon
Feb 17
First Quarter
Feb 25
Full
Mar 4
Last Quarter
Mar 11
New

Hourly Weather History & Observations

Time (EST) Temp. Dew Point Humidity Pressure Visibility Wind Dir Wind Speed Gust Speed Precip Events Conditions
12:52 AM -11.0 °F -17.0 °F 75% 30.34 in 10.0 mi Calm Calm - N/A   Clear
1:52 AM -14.1 °F -18.9 °F 79% 30.35 in 10.0 mi Calm Calm - N/A   Clear
2:52 AM -18.9 °F -23.1 °F 81% 30.37 in 10.0 mi Calm Calm - N/A   Clear
3:52 AM -18.9 °F -25.1 °F 74% 30.38 in 10.0 mi Calm Calm - N/A   Clear
4:52 AM -20.9 °F -27.0 °F 73% 30.40 in 10.0 mi Calm Calm - N/A   Clear
5:52 AM -22.0 °F -29.0 °F 70% 30.42 in 10.0 mi Calm Calm - N/A   Clear
6:52 AM -20.9 °F -27.9 °F 70% 30.45 in 10.0 mi Calm Calm - N/A   Clear
7:52 AM -20.0 °F -24.0 °F 82% 30.47 in 10.0 mi Calm Calm - N/A   Clear
8:52 AM -9.9 °F -14.1 °F 82% 30.48 in 10.0 mi Calm Calm - N/A   Clear
9:52 AM 3.9 °F -0.9 °F 80% 30.47 in 9.0 mi Calm Calm - N/A   Clear
10:52 AM 14.0 °F -6.0 °F 41% 30.47 in 10.0 mi Calm Calm - N/A   Clear
11:52 AM 19.9 °F -2.0 °F 38% 30.45 in 10.0 mi Calm Calm - N/A   Clear
12:52 PM 21.9 °F -0.0 °F 38% 30.43 in 10.0 mi Calm Calm - N/A   Clear
1:52 PM 25.0 °F -0.0 °F 34% 30.40 in 10.0 mi Calm Calm - N/A   Clear
2:52 PM 27.0 °F 1.0 °F 33% 30.40 in 10.0 mi Calm Calm - N/A   Clear
3:52 PM 25.0 °F 3.0 °F 39% 30.40 in 10.0 mi Calm Calm - N/A   Clear
4:52 PM 19.0 °F 10.9 °F 71% 30.42 in 10.0 mi Calm Calm - N/A   Clear
5:52 PM 12.9 °F 9.0 °F 84% 30.42 in 10.0 mi Calm Calm - N/A   Clear
6:52 PM 8.1 °F 3.9 °F 83% 30.42 in 10.0 mi Calm Calm - N/A   Clear
7:52 PM 3.9 °F -0.9 °F 80% 30.41 in 10.0 mi Calm Calm - N/A   Clear
8:52 PM 3.0 °F -2.9 °F 76% 30.39 in 10.0 mi Calm Calm - N/A   Clear
9:52 PM -0.9 °F -7.1 °F 75% 30.37 in 10.0 mi Calm Calm - N/A   Clear
10:52 PM -2.9 °F -8.0 °F 79% 30.36 in 10.0 mi Calm Calm - N/A   Clear
11:52 PM -4.0 °F -9.0 °F 79% 30.35 in 10.0 mi Calm Calm - N/A   Clear